Location: Unspecified
(42.7170°S, 0.0000°E)
Time: 17:21:18
(UTC+00:00)

N. Korean satellite - Pass Details

Date: 29 May 2019
Orbit: 455 x 510 km, 97.2° (Epoch: 17 June)

Event Time Altitude Azimuth Distance (km) Brightness Sun altitude
Exits shadow 17:49:06 10° 157° (SSE) 1,770 9.0 -13.0°
Reaches altitude 10° 17:49:10 10° 157° (SSE) 1,746 9.0 -13.0°
Maximum altitude 17:52:50 49° 81° (E) 673 6.9 -13.7°
Drops below altitude 10° 17:56:29 10° 5° (N) 1,737 9.5 -14.3°
Sets 17:58:37 0° 359° (N) 2,616 10.5 -14.7°
